Location: Byszew
(52.1813°N, 19.2693°E)
Time: 21:27:54
(UTC+00:00)

Cosmos 2366 rocket - Pass Details

Date: 03 March 2021
Orbit: 954 x 998 km, 82.9° (Epoch: 15 April)

Event Time Altitude Azimuth Distance (km) Brightness Sun altitude
Rises 18:22:18 0° 177° (S) 3,685 6.9 -18.5°
Reaches altitude 10° 18:24:49 10° 174° (S) 2,746 6.2 -18.8°
Maximum altitude 18:31:03 65° 95° (E) 1,088 4.0 -19.8°
Drops below altitude 10° 18:37:21 10° 15° (NNE) 2,779 6.4 -20.7°
Sets 18:39:55 0° 12° (NNE) 3,733 7.1 -21.1°
